Flag for Germany Weather past 2 weeks in Meiningen, Thuringia, Germany

Now
70 °F

Scattered clouds.


Feels Like: 77 °F
Forecast: 45 / 71 °F
Wind: 6 mph from West

Location: Meiningen

Current Time: Jun 3, 2015 at 6:15:33 PM

Latest Report: Jun 3, 2015 at 4:00 PM


Visibility: 16 mi

Pressure: 30.15 "Hg

Humidity: 49%

Dew point: 50 °F

Location of MeiningenLocation

Historic Weather in Meiningen — Graph

°F

Meiningen temperature yesterday

Maximum temperature yesterday: 71 °F (at 7:00 PM)
Minimum temperature yesterday: 49 °F (at 6:00 AM)
Average temperature yesterday: 60 °F

Past Weeks' High & Low Weather Summary

 TemperatureHumidityPressure
High71 °F (Jun 2, 7:00 PM)100% (May 29, 6:00 AM)30.38 "Hg (May 29, 6:00 AM)
Low36 °F (May 28, 6:00 AM)34% (May 30, 3:00 PM)29.76 "Hg (May 19, 4:00 PM)
Average53 °F69%30.05 "Hg
* Reported May 19 4:00 PM — Jun 3 4:00 PM, Meiningen, Weather by CustomWeather, © 2015

Note: Actual official high and low records may vary slightly from our data, if they occured in-between our weather recording intervals... More about our weather records

Advertising

Meiningen weather history for previous 24 hours

 ConditionsComfort  
Time TempWeatherWind HumidityBarometerVisibility
4:00 PM
Wed, Jun 3
70 °FScattered clouds.6 mph49%30.15 "Hg16 mi
3:00 PM70 °FOvercast.6 mph49%30.14 "Hg34 mi
2:00 PM71 °FScattered clouds.8 mph47%30.13 "Hg12 mi
1:00 PM69 °FPartly sunny.6 mph54%30.12 "Hg22 mi
12:00 PM70 °FPassing clouds.7 mph50%30.11 "Hg9 mi
10:00 AM69 °FPassing clouds.5 mph54%30.08 "Hg19 mi
9:00 AM65 °FSunny.5 mph61%30.07 "Hg12 mi
8:00 AM62 °FSunny.5 mph67%30.07 "Hg18 mi
7:00 AM60 °FScattered clouds.3 mph68%30.06 "Hg28 mi
6:00 AM58 °FSunny.3 mph72%30.06 "Hg31 mi
4:00 AM60 °FClear.5 mph66%30.04 "Hg43 mi
3:00 AM60 °FClear.3 mph64%30.04 "Hg43 mi
2:00 AM62 °FClear.5 mph61%30.04 "Hg43 mi
1:00 AM62 °FClear.5 mph59%30.03 "Hg43 mi
12:00 AM63 °FClear.3 mph56%30.02 "Hg43 mi
10:00 PM
Tue, Jun 2
66 °FClear.5 mph48%30.00 "Hg43 mi
9:00 PM69 °FPassing clouds.6 mph43%29.98 "Hg37 mi
8:00 PM71 °FPassing clouds.6 mph41%29.97 "Hg16 mi
7:00 PM71 °FScattered clouds.7 mph40%29.96 "Hg14 mi
6:00 PM71 °FOvercast.7 mph42%29.97 "Hg12 mi
Weather by CustomWeather, © 2015

See weather overviewHow to use our weather pages